Simultaneous Nadir Overpasses (SNOs) Predictions

Prediction of SNOs between AQUA and NOAA-19 Satellite Orbit:

Table of predicted SNOs for the next 14.0 days since TLE Epoch: 3/13/2021
Index Date (AQUA) Time (AQUA) Lat,Lon (AQUA) SZA (AQUA ) Date (NOAA-19) Time (NOAA-19) Lat,Lon (NOAA-19) SZA (NOAA-19 ) Distance(km) Time Diff (sec)
1 03/13/2021 22:32:55 79.06, 177.77 82.69 03/13/2021 22:32:41 79.07, 177.76 82.71 1.64 14
2 03/16/2021 04:06:38 -79.04, -85.57 98.23 03/16/2021 04:05:59 -79.04, -85.69 98.20 2.57 39
3 03/16/2021 04:56:06 79.07, 81.88 81.81 03/16/2021 04:56:53 79.07, 81.83 81.80 1.08 47
4 03/18/2021 09:40:21 78.98, 11.39 80.79 03/18/2021 09:39:11 78.87, 9.73 80.87 37.43 70
5 03/18/2021 10:29:49 -79.06, 178.52 99.11 03/18/2021 10:30:11 -79.06, 178.45 99.11 1.58 22
6 03/20/2021 16:03:33 79.04, -84.79 79.98 03/20/2021 16:03:18 79.03, -84.92 79.99 2.78 15
7 03/22/2021 21:37:16 -79.03, 11.81 100.93 03/22/2021 21:36:36 -79.03, 11.80 100.92 0.58 40
8 03/22/2021 22:26:44 79.07, 179.24 79.11 03/22/2021 22:27:29 79.07, 179.40 79.08 3.39 45
9 03/25/2021 03:10:57 78.90, 109.16 78.00 03/25/2021 03:09:48 78.83, 107.05 78.15 45.96 69



Historial Predications of SNOs between AQUA and NOAA-19
